KLM836 WSSS-EHAM

Flight info

Callsign KLM836
Flight time N/A
Altitude 30000
Route AROSO3A AROSO Y513 KALIL Y501 RINBA Y503 VPL P628 DORIL/N0511F320 P628 VIKIT/N0502F340 P628 RK G202 ZB L750 RANAH B449 MAMED B450 BIBIM A909 RODAR N644 TETRO M10 SARPI UM10 ATCEF/N0489F360 UM10 GOKPA UL746 INB UW90 DEVMU UL852 NEGEM DCT DEGET DCT ALAMU DCT MAREG DCT KOVEL DCT DITIS DCT VARIK DCT KATCE DCT NORKU
Aircraft B77W/H-SDE1E2E3FGHIJ2J3J4J5M1RWXY/LB1D1

Departure

Time 2026-05-04 21:11
Airport Singapore Changi Airport (WSSS)

Arrival

Time N/A
Airport Amsterdam Airport Schiphol (EHAM)
Time Latitude Longitude Altitude Speed Heading
2026-05-04 20:19 1.36633 103.98890 30 ft 0 kts 83°
2026-05-04 20:55 1.36630 103.98870 30 ft 4 kts 81°
2026-05-04 20:56 1.36626 103.98843 30 ft 4 kts 81°
2026-05-04 20:56 1.36622 103.98820 27 ft 4 kts 92°
2026-05-04 20:56 1.36629 103.98802 27 ft 4 kts 152°
2026-05-04 20:56 1.36654 103.98796 27 ft 4 kts 174°
2026-05-04 20:57 1.36661 103.98795 27 ft 0 kts 173°
2026-05-04 21:00 1.36643 103.98797 26 ft 6 kts 173°
2026-05-04 21:00 1.36593 103.98803 30 ft 8 kts 173°
2026-05-04 21:01 1.36540 103.98808 30 ft 8 kts 177°
2026-05-04 21:01 1.36487 103.98801 30 ft 8 kts 195°
2026-05-04 21:01 1.36438 103.98785 30 ft 8 kts 199°
2026-05-04 21:01 1.36400 103.98746 30 ft 8 kts 245°
2026-05-04 21:02 1.36364 103.98677 30 ft 15 kts 231°
2026-05-04 21:02 1.36254 103.98614 30 ft 22 kts 205°
2026-05-04 21:02 1.36093 103.98545 30 ft 28 kts 202°
2026-05-04 21:02 1.35892 103.98463 30 ft 34 kts 202°
2026-05-04 21:03 1.35700 103.98385 30 ft 29 kts 202°
2026-05-04 21:03 1.35526 103.98312 30 ft 25 kts 202°
2026-05-04 21:03 1.35368 103.98246 30 ft 25 kts 204°
2026-05-04 21:03 1.35211 103.98177 30 ft 25 kts 204°
2026-05-04 21:04 1.35054 103.98109 30 ft 25 kts 202°
2026-05-04 21:04 1.34896 103.98042 30 ft 25 kts 202°
2026-05-04 21:04 1.34780 103.98068 30 ft 19 kts 121°
2026-05-04 21:04 1.34726 103.98190 30 ft 19 kts 112°
2026-05-04 21:05 1.34675 103.98314 45 ft 21 kts 112°
2026-05-04 21:05 1.34606 103.98477 44 ft 27 kts 113°
2026-05-04 21:05 1.34523 103.98669 29 ft 30 kts 114°
2026-05-04 21:05 1.34409 103.98832 30 ft 30 kts 169°
2026-05-04 21:06 1.34212 103.98767 30 ft 30 kts 204°
2026-05-04 21:06 1.34081 103.98737 30 ft 30 kts 163°
2026-05-04 21:06 1.33882 103.98728 31 ft 30 kts 202°
2026-05-04 21:06 1.33690 103.98647 30 ft 30 kts 203°
2026-05-04 21:07 1.33498 103.98567 30 ft 30 kts 202°
2026-05-04 21:07 1.33243 103.98461 30 ft 30 kts 202°
2026-05-04 21:07 1.33052 103.98383 31 ft 23 kts 201°
2026-05-04 21:07 1.32966 103.98380 31 ft 0 kts 142°
2026-05-04 21:08 1.32961 103.98384 31 ft 6 kts 140°
2026-05-04 21:08 1.32929 103.98432 32 ft 9 kts 114°
2026-05-04 21:08 1.32919 103.98492 33 ft 10 kts 74°
2026-05-04 21:09 1.32980 103.98540 34 ft 0 kts 23°
2026-05-04 21:10 1.33047 103.98569 34 ft 35 kts 23°
2026-05-04 21:10 1.33535 103.98775 30 ft 117 kts 23°
2026-05-04 21:10 1.34514 103.99188 34 ft 189 kts 22°
2026-05-04 21:11 1.35733 103.99701 219 ft 223 kts 23°
2026-05-04 21:11 1.37152 104.00300 893 ft 231 kts 23°
2026-05-04 21:11 1.38504 104.00875 1974 ft 225 kts 23°
2026-05-04 21:11 1.39921 104.01476 2701 ft 217 kts 23°
2026-05-04 21:12 1.41334 104.02073 3153 ft 225 kts 23°
2026-05-04 21:12 1.42868 104.02719 3178 ft 253 kts 22°
2026-05-04 21:12 1.44464 104.03390 3201 ft 247 kts 22°
2026-05-04 21:12 1.46035 104.04050 3434 ft 246 kts 22°
2026-05-04 21:13 1.47620 104.04713 4030 ft 248 kts 21°
2026-05-04 21:13 1.49327 104.05029 4391 ft 257 kts 352°
2026-05-04 21:13 1.51056 104.04518 4853 ft 264 kts 335°
2026-05-04 21:13 1.52712 104.03676 5442 ft 269 kts 331°
2026-05-04 21:14 1.54354 104.02768 6080 ft 271 kts 330°
2026-05-04 21:14 1.56011 104.01844 6748 ft 273 kts 331°
2026-05-04 21:14 1.57685 104.00916 7381 ft 276 kts 331°
2026-05-04 21:14 1.59372 103.99987 7997 ft 278 kts 331°
2026-05-04 21:15 1.61079 103.99054 8597 ft 281 kts 331°
2026-05-04 21:15 1.62802 103.98117 9193 ft 283 kts 331°
2026-05-04 21:15 1.64548 103.97171 9777 ft 286 kts 332°
2026-05-04 21:15 1.66290 103.96228 10343 ft 289 kts 332°
2026-05-04 21:16 1.67993 103.95307 10595 ft 304 kts 332°
2026-05-04 21:16 1.69916 103.94270 10758 ft 324 kts 332°
2026-05-04 21:16 1.71961 103.93166 10919 ft 343 kts 332°
2026-05-04 21:16 1.74113 103.92005 11223 ft 358 kts 331°
2026-05-04 21:17 1.76174 103.90633 11499 ft 365 kts 314°
2026-05-04 21:17 1.77751 103.88642 11903 ft 369 kts 305°
2026-05-04 21:17 1.79247 103.86575 12506 ft 373 kts 306°
2026-05-04 21:17 1.80806 103.84500 13245 ft 374 kts 307°
2026-05-04 21:18 1.82393 103.82425 13888 ft 378 kts 307°
2026-05-04 21:18 1.84011 103.80325 14483 ft 382 kts 308°
2026-05-04 21:18 1.85649 103.78204 15089 ft 386 kts 308°
2026-05-04 21:18 1.87297 103.76072 15755 ft 388 kts 308°
2026-05-04 21:19 1.88952 103.73930 16373 ft 391 kts 308°
2026-05-04 21:19 1.90624 103.71765 16930 ft 395 kts 307°
2026-05-04 21:19 1.92290 103.69603 17491 ft 398 kts 307°
2026-05-04 21:19 1.93985 103.67401 18054 ft 402 kts 307°
2026-05-04 21:20 1.95695 103.65178 18604 ft 405 kts 307°
2026-05-04 21:20 1.97413 103.62945 19142 ft 408 kts 307°
2026-05-04 21:20 1.99147 103.60691 19660 ft 411 kts 307°
2026-05-04 21:20 2.00900 103.58413 20178 ft 414 kts 307°
2026-05-04 21:21 2.02669 103.56114 20629 ft 419 kts 307°
2026-05-04 21:21 2.04453 103.53795 21055 ft 423 kts 307°
2026-05-04 21:21 2.06251 103.51457 21625 ft 424 kts 307°
2026-05-04 21:21 2.08047 103.49122 22163 ft 425 kts 307°
2026-05-04 21:22 2.09854 103.46772 22595 ft 428 kts 307°
2026-05-04 21:22 2.11677 103.44402 23001 ft 432 kts 307°
2026-05-04 21:22 2.13518 103.42008 23425 ft 434 kts 307°
2026-05-04 21:22 2.15117 103.39450 23756 ft 437 kts 291°
2026-05-04 21:23 2.16019 103.36549 24033 ft 439 kts 284°
2026-05-04 21:23 2.16800 103.33592 24395 ft 442 kts 285°
2026-05-04 21:23 2.17606 103.30611 24816 ft 444 kts 285°
2026-05-04 21:23 2.18436 103.27636 25222 ft 446 kts 285°
2026-05-04 21:24 2.19293 103.24645 25597 ft 448 kts 286°
2026-05-04 21:24 2.20167 103.21642 25953 ft 451 kts 286°
2026-05-04 21:24 2.21052 103.18626 26296 ft 454 kts 286°
2026-05-04 21:24 2.21946 103.15588 26642 ft 456 kts 286°
2026-05-04 21:25 2.22833 103.12576 26981 ft 458 kts 286°
2026-05-04 21:25 2.23733 103.09515 27306 ft 460 kts 286°
2026-05-04 21:25 2.24637 103.06441 27622 ft 462 kts 286°
2026-05-04 21:25 2.25546 103.03343 27941 ft 464 kts 286°
2026-05-04 21:26 2.26457 103.00239 28224 ft 466 kts 286°
2026-05-04 21:26 2.27371 102.97126 28496 ft 468 kts 286°
2026-05-04 21:26 2.28291 102.93990 28760 ft 470 kts 286°
2026-05-04 21:26 2.29215 102.90842 29000 ft 473 kts 286°
2026-05-04 21:27 2.30143 102.87678 29252 ft 474 kts 286°
2026-05-04 21:27 2.31067 102.84515 29505 ft 475 kts 286°
2026-05-04 21:27 2.31987 102.81336 29729 ft 477 kts 286°
2026-05-04 21:27 2.32909 102.78142 29920 ft 479 kts 286°
2026-05-04 21:28 2.34722 102.71927 29976 ft 480 kts 286°
2026-05-04 21:28 2.36579 102.65591 29999 ft 476 kts 286°
2026-05-04 21:29 2.38447 102.59206 30018 ft 482 kts 286°
2026-05-04 21:29 2.40332 102.52755 29998 ft 483 kts 286°
2026-05-04 21:30 2.42213 102.46314 29995 ft 481 kts 286°
2026-05-04 21:30 2.44083 102.39911 29995 ft 478 kts 286°
2026-05-04 21:31 2.46545 102.33792 29993 ft 474 kts 303°
2026-05-04 21:31 2.48560 102.31186 30001 ft 474 kts 313°
2026-05-04 21:32 2.53653 102.27018 29989 ft 475 kts 323°
2026-05-04 21:32 2.58883 102.23016 29993 ft 477 kts 322°
2026-05-04 21:33 2.64112 102.18901 29998 ft 479 kts 322°
2026-05-04 21:33 2.69355 102.14775 30000 ft 481 kts 322°
2026-05-04 21:34 2.74624 102.10631 30018 ft 481 kts 322°
2026-05-04 21:34 2.79884 102.06496 29993 ft 481 kts 322°
2026-05-04 21:35 2.85163 102.02345 30000 ft 482 kts 322°
2026-05-04 21:35 2.90431 101.98202 29990 ft 482 kts 322°
2026-05-04 21:36 2.95644 101.94102 29997 ft 481 kts 322°
2026-05-04 21:36 3.00914 101.89956 30008 ft 479 kts 322°
2026-05-04 21:37 3.06151 101.85836 29993 ft 478 kts 322°
2026-05-04 21:37 3.11369 101.81730 29999 ft 477 kts 322°
2026-05-04 21:38 3.16586 101.77624 29995 ft 477 kts 322°
2026-05-04 21:38 3.21796 101.73524 30003 ft 476 kts 322°
2026-05-04 21:39 3.26968 101.69451 29998 ft 476 kts 322°
2026-05-04 21:39 3.32280 101.65414 29994 ft 477 kts 327°
2026-05-04 21:40 3.38110 101.62329 30016 ft 478 kts 336°
2026-05-04 21:40 3.44212 101.59695 29995 ft 478 kts 336°
2026-05-04 21:41 3.50326 101.57021 30002 ft 478 kts 336°
2026-05-04 21:41 3.56418 101.54324 30000 ft 478 kts 336°
2026-05-04 21:42 3.62490 101.51627 30000 ft 478 kts 336°
2026-05-04 21:42 3.68543 101.48939 30002 ft 477 kts 336°
2026-05-04 21:43 3.74619 101.46243 30000 ft 477 kts 336°
2026-05-04 21:43 3.80343 101.43699 29987 ft 466 kts 336°
2026-05-04 21:44 3.86280 101.41063 30001 ft 475 kts 336°
2026-05-04 21:44 3.92406 101.38338 29997 ft 479 kts 336°
2026-05-04 21:45 3.98435 101.35655 29995 ft 477 kts 336°
2026-05-04 21:45 4.04498 101.32957 30000 ft 476 kts 336°
2026-05-04 21:46 4.10545 101.30266 30001 ft 475 kts 336°
2026-05-04 21:46 4.16595 101.27573 30002 ft 476 kts 336°
2026-05-04 21:47 4.22660 101.24873 30002 ft 476 kts 336°
2026-05-04 21:47 4.28678 101.22194 30002 ft 477 kts 336°
2026-05-04 21:48 4.34757 101.19486 29992 ft 480 kts 336°
2026-05-04 21:48 4.40879 101.16760 30001 ft 482 kts 336°
2026-05-04 21:49 4.47000 101.14033 29996 ft 481 kts 336°
2026-05-04 21:49 4.53087 101.11321 29997 ft 479 kts 336°
2026-05-04 21:50 4.59146 101.08629 29997 ft 477 kts 336°
2026-05-04 21:50 4.65238 101.06003 29999 ft 476 kts 336°
2026-05-04 21:51 4.71301 101.03409 29994 ft 477 kts 336°
2026-05-04 21:51 4.77371 101.00802 30000 ft 479 kts 336°
2026-05-04 21:52 4.83506 100.98159 30019 ft 480 kts 336°
2026-05-04 21:52 4.89644 100.95515 29996 ft 480 kts 336°
2026-05-04 21:53 4.95785 100.92869 30001 ft 479 kts 336°
2026-05-04 21:53 5.01900 100.90231 29991 ft 479 kts 336°
2026-05-04 21:54 5.06973 100.88036 30024 ft 480 kts 336°
2026-05-04 21:54 5.13089 100.85389 30000 ft 480 kts 336°
2026-05-04 21:55 5.19239 100.82729 29995 ft 481 kts 336°
2026-05-04 21:55 5.25371 100.80076 30020 ft 481 kts 336°
2026-05-04 21:56 5.31471 100.77436 29993 ft 479 kts 336°
2026-05-04 21:56 5.37273 100.74240 29996 ft 477 kts 324°
2026-05-04 21:57 5.42253 100.69899 30000 ft 476 kts 314°
2026-05-04 21:57 5.46854 100.65130 29994 ft 476 kts 314°
2026-05-04 21:58 5.51460 100.60379 30004 ft 476 kts 314°
2026-05-04 21:58 5.56074 100.55660 30001 ft 476 kts 314°
2026-05-04 21:59 5.60713 100.50932 30000 ft 477 kts 314°
2026-05-04 21:59 5.65342 100.46215 30002 ft 477 kts 314°
2026-05-04 22:00 5.69999 100.41466 30002 ft 477 kts 314°
2026-05-04 22:00 5.74639 100.36732 30001 ft 477 kts 314°
2026-05-04 22:01 5.79296 100.31979 30001 ft 477 kts 314°
2026-05-04 22:01 5.83961 100.27217 30002 ft 477 kts 314°
2026-05-04 22:02 5.88616 100.22464 30001 ft 477 kts 314°
2026-05-04 22:02 5.93243 100.17739 30002 ft 477 kts 314°
2026-05-04 22:03 5.97899 100.12983 30001 ft 477 kts 314°
2026-05-04 22:03 6.02553 100.08227 30001 ft 477 kts 314°
2026-05-04 22:04 6.07203 100.03475 30001 ft 477 kts 314°
2026-05-04 22:04 6.11858 99.98714 30000 ft 477 kts 314°
2026-05-04 22:05 6.16468 99.93976 30001 ft 477 kts 314°
2026-05-04 22:05 6.21097 99.89212 30001 ft 477 kts 314°
2026-05-04 22:06 6.25734 99.84444 30000 ft 477 kts 314°
2026-05-04 22:06 6.30369 99.79676 30003 ft 477 kts 314°
2026-05-04 22:07 6.34671 99.74613 29993 ft 477 kts 303°
2026-05-04 22:07 6.37695 99.68688 29996 ft 477 kts 290°
2026-05-04 22:08 6.39949 99.62452 30019 ft 477 kts 290°
2026-05-04 22:08 6.42243 99.56183 29998 ft 478 kts 290°
2026-05-04 22:09 6.44576 99.49922 30002 ft 478 kts 290°
2026-05-04 22:09 6.46916 99.43663 30002 ft 478 kts 290°
2026-05-04 22:10 6.49252 99.37405 30001 ft 477 kts 290°
2026-05-04 22:10 6.51578 99.31154 30000 ft 477 kts 290°
2026-05-04 22:11 6.53898 99.24890 30012 ft 477 kts 290°
2026-05-04 22:11 6.56201 99.18670 29995 ft 477 kts 290°
2026-05-04 22:12 6.58518 99.12414 29997 ft 477 kts 290°
2026-05-04 22:12 6.60835 99.06158 30002 ft 477 kts 290°
2026-05-04 22:13 6.63150 98.99908 30000 ft 477 kts 290°
2026-05-04 22:13 6.65465 98.93651 30001 ft 477 kts 290°
2026-05-04 22:14 6.67775 98.87404 30001 ft 477 kts 290°
2026-05-04 22:14 6.70087 98.81150 30002 ft 477 kts 290°
2026-05-04 22:15 6.72384 98.74937 30001 ft 477 kts 290°
2026-05-04 22:15 6.74691 98.68692 30002 ft 477 kts 290°
2026-05-04 22:16 6.77001 98.62436 30002 ft 477 kts 290°
2026-05-04 22:16 6.79294 98.56223 30001 ft 477 kts 290°
2026-05-04 22:17 6.81605 98.49958 30002 ft 477 kts 290°
2026-05-04 22:17 6.83914 98.43696 30000 ft 477 kts 290°
2026-05-04 22:18 6.86221 98.37438 30002 ft 477 kts 290°
2026-05-04 22:18 6.88528 98.31174 30001 ft 477 kts 290°
2026-05-04 22:19 6.90832 98.24919 30001 ft 477 kts 290°
2026-05-04 22:19 6.93134 98.18666 30001 ft 477 kts 290°
2026-05-04 22:20 6.95440 98.12399 30001 ft 477 kts 290°
2026-05-04 22:20 6.97745 98.06133 30001 ft 477 kts 290°
2026-05-04 22:21 7.00766 98.00241 30021 ft 475 kts 308°
2026-05-04 22:21 7.05564 97.95691 29992 ft 476 kts 324°
2026-05-04 22:22 7.10955 97.91816 29995 ft 477 kts 324°
2026-05-04 22:22 7.16340 97.87897 29999 ft 478 kts 323°
2026-05-04 22:23 7.21669 97.83965 30002 ft 478 kts 323°
2026-05-04 22:23 7.27060 97.79968 30001 ft 478 kts 323°
2026-05-04 22:24 7.32392 97.76014 30001 ft 478 kts 323°
2026-05-04 22:24 7.37750 97.72042 30001 ft 478 kts 323°
2026-05-04 22:25 7.43104 97.68072 30001 ft 477 kts 323°
2026-05-04 22:25 7.48449 97.64109 30001 ft 477 kts 323°
2026-05-04 22:26 7.53782 97.60152 30001 ft 477 kts 323°
2026-05-04 22:26 7.59126 97.56186 30002 ft 477 kts 323°
2026-05-04 22:27 7.64476 97.52215 30002 ft 477 kts 323°
2026-05-04 22:27 7.69785 97.48280 30001 ft 477 kts 323°
2026-05-04 22:28 7.75136 97.44322 30001 ft 477 kts 323°
2026-05-04 22:28 7.80488 97.40360 30001 ft 477 kts 323°
2026-05-04 22:29 7.85843 97.36394 30002 ft 477 kts 323°
2026-05-04 22:29 7.91195 97.32428 30001 ft 477 kts 323°
2026-05-04 22:30 7.96547 97.28461 30001 ft 477 kts 323°
2026-05-04 22:30 8.01890 97.24492 30001 ft 477 kts 322°
2026-05-04 22:31 8.06606 97.19855 30002 ft 477 kts 309°
2026-05-04 22:31 8.10301 97.14313 30023 ft 477 kts 301°
2026-05-04 22:32 8.13695 97.08555 29997 ft 477 kts 301°
2026-05-04 22:32 8.17104 97.02818 30003 ft 477 kts 301°
2026-05-04 22:33 8.20545 96.97077 30001 ft 477 kts 301°
2026-05-04 22:33 8.23989 96.91349 30001 ft 477 kts 301°
2026-05-04 22:34 8.27432 96.85620 30001 ft 477 kts 301°
2026-05-04 22:34 8.30880 96.79879 30001 ft 477 kts 301°
2026-05-04 22:35 8.34295 96.74189 30001 ft 477 kts 301°
2026-05-04 22:35 8.37734 96.68457 30002 ft 477 kts 301°
2026-05-04 22:36 8.41173 96.62721 30000 ft 477 kts 301°
2026-05-04 22:36 8.44610 96.56987 30002 ft 477 kts 301°
2026-05-04 22:37 8.48042 96.51259 30002 ft 477 kts 301°
2026-05-04 22:37 8.51482 96.45516 30002 ft 477 kts 301°
2026-05-04 22:38 8.54908 96.39794 30002 ft 477 kts 301°
2026-05-04 22:38 8.58344 96.34052 30001 ft 477 kts 301°
2026-05-04 22:39 8.61777 96.28313 30001 ft 477 kts 301°
2026-05-04 22:39 8.65186 96.22612 30001 ft 477 kts 301°
2026-05-04 22:40 8.68620 96.16865 30002 ft 477 kts 301°
2026-05-04 22:40 8.72050 96.11124 30001 ft 477 kts 301°
2026-05-04 22:41 8.75482 96.05377 30001 ft 477 kts 301°
2026-05-04 22:41 8.78332 96.00601 30001 ft 477 kts 301°
2026-05-04 22:42 8.81754 95.94856 30000 ft 477 kts 301°
2026-05-04 22:42 8.85175 95.89105 30000 ft 477 kts 301°
2026-05-04 22:43 8.88596 95.83355 30001 ft 477 kts 301°
2026-05-04 22:43 8.92015 95.77607 30001 ft 477 kts 301°
2026-05-04 22:44 8.95427 95.71869 30002 ft 477 kts 301°
2026-05-04 22:44 8.98846 95.66116 30001 ft 477 kts 301°
2026-05-04 22:45 9.02272 95.60348 30002 ft 477 kts 301°
2026-05-04 22:45 9.07375 95.51753 30001 ft 477 kts 301°
2026-05-04 22:46 9.10793 95.45991 30001 ft 477 kts 301°
2026-05-04 22:46 9.14211 95.40229 30002 ft 477 kts 301°
2026-05-04 22:47 9.17628 95.34465 30001 ft 477 kts 301°
2026-05-04 22:47 9.21045 95.28697 30001 ft 477 kts 301°
2026-05-04 22:48 9.24437 95.22971 30002 ft 477 kts 301°
2026-05-04 22:48 9.27845 95.17213 30001 ft 477 kts 301°
2026-05-04 22:49 9.31255 95.11449 30001 ft 477 kts 301°
2026-05-04 22:49 9.34674 95.05669 30002 ft 477 kts 301°
2026-05-04 22:50 9.38076 94.99915 30001 ft 477 kts 301°
2026-05-04 22:50 9.41488 94.94139 30002 ft 477 kts 301°
2026-05-04 22:51 9.44899 94.88364 30025 ft 478 kts 301°
2026-05-04 22:51 9.46609 94.85467 30210 ft 479 kts 301°
2026-05-04 22:51 9.48291 94.82618 30569 ft 477 kts 301°
2026-05-04 22:52 9.49991 94.79737 30956 ft 474 kts 301°
2026-05-04 22:52 9.51701 94.76839 31322 ft 472 kts 301°
2026-05-04 22:52 9.53358 94.74029 31631 ft 471 kts 301°
2026-05-04 22:52 9.55039 94.71177 31889 ft 470 kts 301°
2026-05-04 22:53 9.58401 94.65476 31999 ft 472 kts 301°
2026-05-04 22:53 9.61769 94.59760 32003 ft 471 kts 301°
2026-05-04 22:54 9.65119 94.54072 32000 ft 469 kts 301°
2026-05-04 22:54 9.68460 94.48396 32002 ft 468 kts 301°
2026-05-04 22:55 9.71985 94.42853 31987 ft 468 kts 308°
2026-05-04 22:55 9.76468 94.38072 32001 ft 469 kts 319°
2026-05-04 22:56 9.81431 94.33846 32005 ft 470 kts 320°
2026-05-04 22:56 9.86450 94.29581 32002 ft 471 kts 320°
2026-05-04 22:57 9.91465 94.25284 32002 ft 472 kts 320°
2026-05-04 22:57 9.96473 94.20970 32001 ft 472 kts 319°
2026-05-04 22:58 10.01474 94.16657 32001 ft 472 kts 319°
2026-05-04 22:58 10.06473 94.12343 32001 ft 471 kts 319°
2026-05-04 22:59 10.11436 94.08060 32001 ft 471 kts 319°
2026-05-04 22:59 10.16432 94.03748 32001 ft 471 kts 319°
2026-05-04 23:00 10.21422 93.99439 32001 ft 470 kts 319°
2026-05-04 23:00 10.26400 93.95137 32001 ft 470 kts 319°
2026-05-04 23:01 10.31387 93.90827 32001 ft 470 kts 319°
2026-05-04 23:01 10.36361 93.86525 32001 ft 470 kts 319°
2026-05-04 23:02 10.41350 93.82209 32002 ft 470 kts 319°
2026-05-04 23:02 10.46329 93.77900 32002 ft 470 kts 319°
2026-05-04 23:03 10.51303 93.73593 32001 ft 471 kts 319°
2026-05-04 23:03 10.56262 93.69298 32001 ft 471 kts 319°
2026-05-04 23:04 10.61244 93.64980 32001 ft 471 kts 319°
2026-05-04 23:04 10.66229 93.60658 32001 ft 471 kts 319°
2026-05-04 23:05 10.71204 93.56343 32001 ft 471 kts 319°
2026-05-04 23:05 10.76190 93.52017 32001 ft 471 kts 319°
2026-05-04 23:06 10.81176 93.47688 32001 ft 471 kts 319°
2026-05-04 23:06 10.86157 93.43361 32001 ft 471 kts 319°
2026-05-04 23:07 10.91146 93.39026 32001 ft 471 kts 319°
2026-05-04 23:07 10.96109 93.34712 32001 ft 471 kts 319°
2026-05-04 23:08 11.01059 93.30406 32001 ft 471 kts 319°
2026-05-04 23:08 11.06028 93.26082 32001 ft 471 kts 319°
2026-05-04 23:09 11.11019 93.21737 32001 ft 471 kts 319°
2026-05-04 23:09 11.15994 93.17404 32001 ft 471 kts 319°
2026-05-04 23:10 11.20968 93.13070 32001 ft 471 kts 319°
2026-05-04 23:10 11.25933 93.08741 32001 ft 471 kts 319°
2026-05-04 23:11 11.30908 93.04402 32001 ft 471 kts 319°
2026-05-04 23:11 11.35882 93.00062 32001 ft 471 kts 319°
2026-05-04 23:12 11.40827 92.95745 32001 ft 471 kts 319°
2026-05-04 23:12 11.45802 92.91400 32001 ft 471 kts 319°
2026-05-04 23:13 11.50777 92.87052 32001 ft 471 kts 319°
2026-05-04 23:13 11.55748 92.82706 32001 ft 471 kts 319°
2026-05-04 23:14 11.60719 92.78359 32001 ft 471 kts 319°
2026-05-04 23:14 11.65654 92.73954 31998 ft 471 kts 315°
2026-05-04 23:15 11.70140 92.69082 32009 ft 471 kts 312°
2026-05-04 23:15 11.74551 92.64197 32000 ft 471 kts 313°
2026-05-04 23:16 11.79010 92.59290 32004 ft 471 kts 313°
2026-05-04 23:16 11.83464 92.54413 32001 ft 471 kts 313°
2026-05-04 23:17 11.87941 92.49519 32001 ft 471 kts 313°
2026-05-04 23:17 11.92411 92.44629 32001 ft 471 kts 313°
2026-05-04 23:18 11.96890 92.39725 32001 ft 471 kts 313°
2026-05-04 23:18 12.01360 92.34828 32001 ft 471 kts 313°
2026-05-04 23:19 12.05803 92.29958 32001 ft 471 kts 313°
2026-05-04 23:19 12.10267 92.25062 32001 ft 471 kts 313°
2026-05-04 23:20 12.14732 92.20162 32001 ft 471 kts 313°
2026-05-04 23:20 12.19193 92.15265 32001 ft 471 kts 313°
2026-05-04 23:21 12.23657 92.10362 32001 ft 471 kts 313°
2026-05-04 23:21 12.28120 92.05456 32001 ft 471 kts 313°
2026-05-04 23:22 12.32558 92.00577 32001 ft 471 kts 313°
2026-05-04 23:22 12.37019 91.95669 32001 ft 471 kts 313°
2026-05-04 23:23 12.41465 91.90774 32001 ft 471 kts 313°
2026-05-04 23:23 12.45916 91.85872 32001 ft 471 kts 313°
2026-05-04 23:24 12.50369 91.80966 32001 ft 471 kts 313°
2026-05-04 23:24 12.54826 91.76051 32001 ft 471 kts 313°
2026-05-04 23:25 12.59255 91.71165 32001 ft 471 kts 313°
2026-05-04 23:25 12.63713 91.66245 32001 ft 471 kts 313°
2026-05-04 23:26 12.68170 91.61322 32001 ft 471 kts 313°
2026-05-04 23:26 12.72625 91.56399 32001 ft 471 kts 313°
2026-05-04 23:27 12.77079 91.51475 32001 ft 471 kts 313°
2026-05-04 23:27 12.81523 91.46558 32001 ft 471 kts 313°
2026-05-04 23:28 12.85946 91.41663 32001 ft 471 kts 313°
2026-05-04 23:28 12.90396 91.36735 32001 ft 471 kts 313°
2026-05-04 23:29 12.94855 91.31794 32001 ft 471 kts 313°
2026-05-04 23:29 12.99303 91.26862 32001 ft 471 kts 313°
2026-05-04 23:30 13.03724 91.21958 32001 ft 471 kts 313°
2026-05-04 23:30 13.08161 91.17033 32001 ft 471 kts 313°
2026-05-04 23:31 13.12601 91.12102 32001 ft 471 kts 313°
2026-05-04 23:31 13.17052 91.07155 32001 ft 471 kts 313°
2026-05-04 23:32 13.20745 91.03049 32001 ft 471 kts 313°
2026-05-04 23:32 13.25183 90.98113 32001 ft 471 kts 313°
2026-05-04 23:33 13.29618 90.93176 32001 ft 471 kts 313°
2026-05-04 23:33 13.34061 90.88228 32001 ft 471 kts 312°
2026-05-04 23:34 13.38511 90.83269 32001 ft 471 kts 312°
2026-05-04 23:34 13.42926 90.78346 32001 ft 471 kts 312°
2026-05-04 23:35 13.47401 90.73353 32001 ft 471 kts 312°
2026-05-04 23:35 13.51838 90.68400 32001 ft 471 kts 312°
2026-05-04 23:36 13.56237 90.63487 32001 ft 471 kts 312°
2026-05-04 23:36 13.60669 90.58533 32001 ft 471 kts 312°
2026-05-04 23:37 13.65099 90.53579 32001 ft 471 kts 312°
2026-05-04 23:37 13.69534 90.48617 32001 ft 471 kts 312°
2026-05-04 23:38 13.73966 90.43654 32001 ft 471 kts 312°
2026-05-04 23:38 13.78390 90.38698 32001 ft 471 kts 312°
2026-05-04 23:39 13.82790 90.33765 32001 ft 471 kts 312°
2026-05-04 23:39 13.87222 90.28793 32001 ft 471 kts 312°
2026-05-04 23:40 13.91650 90.23824 32001 ft 471 kts 312°
2026-05-04 23:40 13.96085 90.18843 32001 ft 471 kts 312°
2026-05-04 23:41 14.00516 90.13864 32001 ft 471 kts 312°
2026-05-04 23:41 14.04898 90.08936 32001 ft 471 kts 312°
2026-05-04 23:42 14.09322 90.03959 32001 ft 471 kts 312°
2026-05-04 23:42 14.13736 89.98989 32001 ft 471 kts 312°
2026-05-04 23:43 14.18156 89.94011 32001 ft 471 kts 312°
2026-05-04 23:43 14.22581 89.89023 32001 ft 471 kts 312°
2026-05-04 23:44 14.26986 89.84054 32001 ft 471 kts 312°
2026-05-04 23:44 14.31410 89.79062 32001 ft 471 kts 312°
2026-05-04 23:45 14.35827 89.74074 32001 ft 471 kts 312°
2026-05-04 23:45 14.40247 89.69078 32001 ft 471 kts 312°
2026-05-04 23:46 14.44668 89.64079 32001 ft 471 kts 312°
2026-05-04 23:46 14.49055 89.59116 32001 ft 471 kts 312°
2026-05-04 23:47 14.53457 89.54131 32001 ft 471 kts 312°
2026-05-04 23:47 14.57859 89.49144 32001 ft 471 kts 312°
2026-05-04 23:48 14.62284 89.44129 32001 ft 471 kts 312°
2026-05-04 23:48 14.66702 89.39117 32001 ft 471 kts 312°
2026-05-04 23:49 14.71114 89.34109 32001 ft 471 kts 312°
2026-05-04 23:49 14.75554 89.29120 32000 ft 471 kts 313°
2026-05-04 23:50 14.80090 89.24295 32002 ft 471 kts 314°
2026-05-04 23:50 14.84693 89.19450 32001 ft 471 kts 314°
2026-05-04 23:51 14.89264 89.14605 32001 ft 471 kts 314°
2026-05-04 23:51 14.93828 89.09741 32001 ft 471 kts 314°
2026-05-04 23:52 14.98396 89.04864 32001 ft 471 kts 314°
2026-05-04 23:52 15.02938 89.00010 32001 ft 471 kts 314°
2026-05-04 23:53 15.07472 88.95164 32001 ft 471 kts 314°
2026-05-04 23:53 15.12027 88.90292 32001 ft 471 kts 314°
2026-05-04 23:54 15.16586 88.85413 32001 ft 471 kts 314°
2026-05-04 23:54 15.21142 88.80533 32001 ft 471 kts 314°
2026-05-04 23:55 15.25705 88.75644 32001 ft 471 kts 314°
2026-05-04 23:56 15.32524 88.68330 32001 ft 471 kts 314°
2026-05-04 23:56 15.37081 88.63439 32001 ft 471 kts 314°
2026-05-04 23:57 15.41621 88.58562 32001 ft 471 kts 314°
2026-05-04 23:57 15.46130 88.53715 32001 ft 471 kts 314°
2026-05-04 23:58 15.50684 88.48817 32001 ft 471 kts 314°
2026-05-04 23:58 15.55237 88.43916 32001 ft 471 kts 314°
2026-05-04 23:59 15.59776 88.39027 32001 ft 471 kts 314°
2026-05-04 23:59 15.64323 88.34127 32001 ft 471 kts 314°
2026-05-05 00:00 15.68846 88.29249 32001 ft 471 kts 314°
2026-05-05 00:00 15.73392 88.24342 32001 ft 471 kts 314°
2026-05-05 00:01 15.77933 88.19438 32001 ft 471 kts 314°
2026-05-05 00:01 15.82463 88.14542 32001 ft 471 kts 314°
2026-05-05 00:02 15.87005 88.09630 32001 ft 471 kts 314°
2026-05-05 00:02 15.91548 88.04713 32001 ft 471 kts 314°
2026-05-05 00:03 15.96087 87.99798 32001 ft 471 kts 314°
2026-05-05 00:03 16.00626 87.94878 32001 ft 471 kts 314°
2026-05-05 00:04 16.05162 87.89959 32001 ft 471 kts 314°
2026-05-05 00:04 16.09670 87.85066 32001 ft 471 kts 314°
2026-05-05 00:05 16.14206 87.80140 32001 ft 471 kts 314°
2026-05-05 00:05 16.18738 87.75214 32001 ft 471 kts 314°
2026-05-05 00:06 16.23278 87.70277 32001 ft 471 kts 313°
2026-05-05 00:06 16.27806 87.65349 32001 ft 471 kts 313°
2026-05-05 00:07 16.32339 87.60412 32001 ft 471 kts 313°
2026-05-05 00:07 16.36868 87.55475 32001 ft 471 kts 313°
2026-05-05 00:08 16.41398 87.50534 32001 ft 471 kts 313°
2026-05-05 00:08 16.45924 87.45594 32001 ft 471 kts 313°
2026-05-05 00:09 16.50452 87.40649 32001 ft 471 kts 313°
2026-05-05 00:09 16.54985 87.35693 32001 ft 471 kts 313°
2026-05-05 00:10 16.59483 87.30773 32001 ft 471 kts 313°
2026-05-05 00:10 16.64008 87.25820 32001 ft 471 kts 313°
2026-05-05 00:11 16.68526 87.20872 32001 ft 471 kts 313°
2026-05-05 00:11 16.73049 87.15914 32001 ft 471 kts 313°
2026-05-05 00:12 16.77598 87.10992 32001 ft 471 kts 314°
2026-05-05 00:12 16.82196 87.06095 32002 ft 471 kts 314°
2026-05-05 00:13 16.86789 87.01200 32001 ft 471 kts 314°
2026-05-05 00:13 16.91377 86.96296 32001 ft 471 kts 314°
2026-05-05 00:14 16.95955 86.91392 32001 ft 471 kts 314°
2026-05-05 00:14 17.00492 86.86527 32001 ft 471 kts 314°
2026-05-05 00:15 17.05074 86.81610 32001 ft 471 kts 314°
2026-05-05 00:15 17.09653 86.76694 32001 ft 471 kts 314°
2026-05-05 00:16 17.14227 86.71779 32001 ft 471 kts 314°
2026-05-05 00:16 17.18784 86.66879 32001 ft 471 kts 314°
2026-05-05 00:17 17.23344 86.61972 32001 ft 471 kts 314°
2026-05-05 00:17 17.27890 86.57076 32001 ft 471 kts 314°
2026-05-05 00:18 17.32463 86.52148 32001 ft 471 kts 314°
2026-05-05 00:18 17.37027 86.47225 32001 ft 471 kts 314°
2026-05-05 00:19 17.41595 86.42294 32001 ft 471 kts 314°
2026-05-05 00:19 17.45394 86.38191 32001 ft 471 kts 314°
2026-05-05 00:20 17.49958 86.33258 32001 ft 471 kts 314°
2026-05-05 00:20 17.54512 86.28332 32001 ft 471 kts 314°
2026-05-05 00:21 17.59074 86.23393 32001 ft 471 kts 314°
2026-05-05 00:21 17.63635 86.18452 32001 ft 471 kts 314°
2026-05-05 00:22 17.68200 86.13502 32001 ft 471 kts 314°
2026-05-05 00:22 17.72757 86.08557 32001 ft 471 kts 314°
2026-05-05 00:23 17.77317 86.03605 32001 ft 471 kts 314°
2026-05-05 00:23 17.81863 85.98665 32001 ft 471 kts 314°
2026-05-05 00:24 17.86421 85.93708 32001 ft 471 kts 314°
2026-05-05 00:24 17.90972 85.88754 32001 ft 471 kts 314°
2026-05-05 00:25 17.95529 85.83790 32001 ft 471 kts 314°
2026-05-05 00:25 18.00052 85.78859 32001 ft 471 kts 314°
2026-05-05 00:26 18.04594 85.73903 32001 ft 471 kts 314°
2026-05-05 00:26 18.09142 85.68937 32001 ft 471 kts 314°
2026-05-05 00:27 18.13694 85.63962 32001 ft 471 kts 314°
2026-05-05 00:27 18.18245 85.58985 32001 ft 471 kts 314°
2026-05-05 00:28 18.22792 85.54008 32001 ft 472 kts 314°
2026-05-05 00:28 18.27285 85.49087 32001 ft 472 kts 314°
2026-05-05 00:29 18.31826 85.44108 32001 ft 472 kts 314°
2026-05-05 00:29 18.36369 85.39123 32001 ft 472 kts 314°
2026-05-05 00:30 18.40912 85.34134 32001 ft 472 kts 314°
2026-05-05 00:30 18.45439 85.29160 32001 ft 472 kts 314°
2026-05-05 00:31 18.49977 85.24168 32001 ft 472 kts 314°
2026-05-05 00:31 18.54518 85.19170 32001 ft 472 kts 314°
2026-05-05 00:32 18.59051 85.14176 32001 ft 472 kts 313°
2026-05-05 00:32 18.63586 85.09176 32001 ft 472 kts 313°
2026-05-05 00:33 18.68088 85.04208 32001 ft 472 kts 313°
2026-05-05 00:33 18.72621 84.99203 32001 ft 472 kts 313°
2026-05-05 00:34 18.77152 84.94198 32001 ft 472 kts 313°
2026-05-05 00:34 18.81688 84.89191 32001 ft 472 kts 313°
2026-05-05 00:35 18.86218 84.84182 32001 ft 472 kts 313°
2026-05-05 00:35 18.90740 84.79169 32001 ft 472 kts 313°
2026-05-05 00:36 18.95258 84.74157 32001 ft 472 kts 313°
2026-05-05 00:36 18.99785 84.69132 32001 ft 472 kts 313°
2026-05-05 00:37 19.04306 84.64109 32001 ft 472 kts 313°
2026-05-05 00:37 19.08800 84.59113 32002 ft 472 kts 313°
2026-05-05 00:38 19.13328 84.54074 32001 ft 472 kts 313°
2026-05-05 00:38 19.17826 84.49065 32002 ft 472 kts 313°
2026-05-05 00:39 19.22353 84.44019 32001 ft 472 kts 313°
2026-05-05 00:39 19.26878 84.38972 31999 ft 473 kts 313°
2026-05-05 00:40 19.31415 84.33906 32008 ft 474 kts 313°
2026-05-05 00:40 19.35954 84.28834 32003 ft 475 kts 313°
2026-05-05 00:41 19.40507 84.23743 32006 ft 476 kts 313°
2026-05-05 00:41 19.45091 84.18660 32004 ft 477 kts 314°
2026-05-05 00:42 19.49754 84.13657 32003 ft 477 kts 315°
2026-05-05 00:42 19.54429 84.08660 32000 ft 476 kts 314°
2026-05-05 00:43 19.59079 84.03666 31998 ft 475 kts 314°
2026-05-05 00:43 19.63691 83.98696 31989 ft 475 kts 314°
2026-05-05 00:44 19.68327 83.93691 32011 ft 476 kts 314°
2026-05-05 00:44 19.72965 83.88681 32005 ft 477 kts 314°
2026-05-05 00:45 19.77615 83.83654 32002 ft 477 kts 314°
2026-05-05 00:45 19.82266 83.78622 32004 ft 477 kts 314°
2026-05-05 00:46 19.86884 83.73620 32003 ft 476 kts 314°
2026-05-05 00:46 19.91521 83.68595 31994 ft 476 kts 314°
2026-05-05 00:47 19.96159 83.63563 32002 ft 476 kts 314°
2026-05-05 00:47 20.00794 83.58530 32000 ft 477 kts 314°
2026-05-05 00:48 20.05431 83.53490 32004 ft 476 kts 314°
2026-05-05 00:48 20.10062 83.48454 32001 ft 475 kts 314°
2026-05-05 00:49 20.14680 83.43426 31999 ft 474 kts 314°
2026-05-05 00:49 20.19280 83.38412 32000 ft 473 kts 314°
2026-05-05 00:50 20.23861 83.33416 32000 ft 472 kts 314°
2026-05-05 00:50 20.28411 83.28448 32003 ft 472 kts 314°
2026-05-05 00:51 20.32995 83.23440 32000 ft 472 kts 314°
2026-05-05 00:51 20.37587 83.18419 32006 ft 473 kts 314°
2026-05-05 00:52 20.42184 83.13386 32001 ft 473 kts 314°
2026-05-05 00:52 20.46775 83.08356 32003 ft 474 kts 314°
2026-05-05 00:53 20.51372 83.03315 32001 ft 474 kts 314°
2026-05-05 00:53 20.55969 82.98270 32001 ft 474 kts 314°
2026-05-05 00:54 20.60566 82.93217 32001 ft 474 kts 314°
2026-05-05 00:54 20.65157 82.88158 32001 ft 474 kts 314°
2026-05-05 00:55 20.69722 82.83123 32000 ft 474 kts 314°
2026-05-05 00:55 20.74289 82.78083 32001 ft 474 kts 314°
2026-05-05 00:56 20.78863 82.73031 32002 ft 474 kts 314°
2026-05-05 00:56 20.83440 82.67971 32001 ft 474 kts 314°
2026-05-05 00:57 20.88026 82.62897 32001 ft 474 kts 314°
2026-05-05 00:57 20.92577 82.57864 32001 ft 474 kts 314°
2026-05-05 00:58 20.97167 82.52816 32001 ft 474 kts 314°
2026-05-05 00:58 21.01773 82.47750 32001 ft 474 kts 314°
2026-05-05 00:59 21.06365 82.42690 32001 ft 474 kts 314°
2026-05-05 00:59 21.10956 82.37624 32002 ft 474 kts 314°
2026-05-05 01:00 21.15547 82.32554 32002 ft 474 kts 314°
2026-05-05 01:00 21.20142 82.27474 32001 ft 474 kts 314°
2026-05-05 01:01 21.24735 82.22392 32001 ft 474 kts 314°
2026-05-05 01:01 21.29321 82.17312 32002 ft 474 kts 314°
2026-05-05 01:02 21.33873 82.12265 32001 ft 474 kts 314°
2026-05-05 01:02 21.38458 82.07178 32001 ft 474 kts 314°
2026-05-05 01:03 21.43041 82.02088 32001 ft 474 kts 314°
2026-05-05 01:03 21.47635 81.97029 32001 ft 474 kts 315°
2026-05-05 01:04 21.52310 81.92034 32002 ft 474 kts 315°
2026-05-05 01:04 21.59326 81.84535 32001 ft 474 kts 315°
2026-05-05 01:05 21.63990 81.79523 32001 ft 474 kts 315°
2026-05-05 01:05 21.68646 81.74511 32002 ft 474 kts 315°
2026-05-05 01:06 21.73276 81.69524 32001 ft 474 kts 315°
2026-05-05 01:06 21.77935 81.64501 32001 ft 474 kts 315°
2026-05-05 01:07 21.82552 81.59445 32001 ft 474 kts 314°
2026-05-05 01:07 21.86372 81.55208 32001 ft 474 kts 314°
2026-05-05 01:08 21.91721 81.49292 32001 ft 474 kts 314°
2026-05-05 01:08 21.96282 81.44175 32001 ft 474 kts 313°
2026-05-05 01:09 22.00067 81.39837 32001 ft 474 kts 313°
2026-05-05 01:09 22.04560 81.34695 32001 ft 474 kts 313°
2026-05-05 01:10 22.09094 81.29520 32001 ft 474 kts 313°
2026-05-05 01:10 22.13650 81.24379 32001 ft 474 kts 314°
2026-05-05 01:11 22.18252 81.19266 32001 ft 475 kts 314°
2026-05-05 01:11 22.22829 81.14177 32001 ft 475 kts 314°
2026-05-05 01:12 22.27435 81.09037 32001 ft 476 kts 314°
2026-05-05 01:12 22.32041 81.03887 32005 ft 477 kts 314°
2026-05-05 01:13 22.36657 80.98718 32000 ft 478 kts 314°
2026-05-05 01:13 22.41271 80.93549 32004 ft 478 kts 314°
2026-05-05 01:14 22.45898 80.88358 31999 ft 478 kts 314°
2026-05-05 01:14 22.50513 80.83177 32002 ft 477 kts 314°
2026-05-05 01:15 22.55087 80.78036 32001 ft 477 kts 314°
2026-05-05 01:15 22.59684 80.72863 32001 ft 476 kts 314°
2026-05-05 01:16 22.64271 80.67697 32001 ft 475 kts 314°
2026-05-05 01:16 22.68852 80.62532 32001 ft 475 kts 314°
2026-05-05 01:17 22.73425 80.57371 32002 ft 475 kts 314°
2026-05-05 01:17 22.77998 80.52205 32001 ft 475 kts 314°
2026-05-05 01:18 22.82570 80.47035 32001 ft 475 kts 314°
2026-05-05 01:18 22.87138 80.41863 32000 ft 475 kts 314°
2026-05-05 01:19 22.91713 80.36678 32003 ft 476 kts 314°
2026-05-05 01:19 22.96251 80.31531 32001 ft 476 kts 313°
2026-05-05 01:20 23.00826 80.26335 32003 ft 476 kts 313°
2026-05-05 01:20 23.05405 80.21129 32000 ft 477 kts 313°
2026-05-05 01:21 23.09846 80.16076 32002 ft 476 kts 313°
2026-05-05 01:21 23.14252 80.11058 32000 ft 476 kts 313°
2026-05-05 01:22 23.18686 80.05716 32001 ft 475 kts 307°
2026-05-05 01:22 23.22234 79.99678 32005 ft 474 kts 300°
2026-05-05 01:23 23.25572 79.93486 32000 ft 474 kts 300°
2026-05-05 01:23 23.28933 79.87300 32002 ft 474 kts 300°
2026-05-05 01:24 23.32285 79.81175 32001 ft 474 kts 301°
2026-05-05 01:24 23.35665 79.75009 32001 ft 474 kts 301°
2026-05-05 01:25 23.39042 79.68839 31998 ft 475 kts 301°
2026-05-05 01:25 23.42422 79.62655 32004 ft 475 kts 301°
2026-05-05 01:26 23.45798 79.56468 32003 ft 476 kts 300°
2026-05-05 01:26 23.49177 79.50268 32000 ft 476 kts 300°
2026-05-05 01:27 23.52555 79.44063 32002 ft 475 kts 300°
2026-05-05 01:27 23.55923 79.37869 32000 ft 475 kts 300°
2026-05-05 01:28 23.59287 79.31673 32001 ft 475 kts 300°
2026-05-05 01:28 23.62647 79.25478 32000 ft 474 kts 300°
2026-05-05 01:29 23.66003 79.19283 32002 ft 474 kts 300°
2026-05-05 01:29 23.69335 79.13124 32001 ft 474 kts 300°
2026-05-05 01:30 23.72690 79.06928 32002 ft 474 kts 301°
2026-05-05 01:30 23.76048 79.00721 32000 ft 475 kts 300°
2026-05-05 01:31 23.79396 78.94507 32002 ft 475 kts 300°
2026-05-05 01:31 23.82747 78.88278 32001 ft 475 kts 300°
2026-05-05 01:32 23.86094 78.82049 32001 ft 476 kts 300°